Time,TemperatureF,DewpointF,PressureIn,WindDirection,WindDirectionDegrees,WindSpeedMPH,WindSpeedGustMPH,Humidity,HourlyPrecipIn,Conditions,Clouds,dailyrainin,SoftwareType,DateUTC
2013-08-04 00:02:00,78.3,72.7,30.04,East,96,0.0,5.0,83,0.00,,OVC130,0.00,VWS V14.01,2013-08-04 05:02:00,
2013-08-04 00:08:00,78.3,72.7,30.04,East,83,0.0,5.0,83,0.00,,OVC130,0.00,VWS V14.01,2013-08-04 05:08:00,
2013-08-04 00:13:00,78.3,73.1,30.04,East,83,0.0,5.0,84,0.00,,OVC130,0.00,VWS V14.01,2013-08-04 05:13:00,
2013-08-04 00:18:00,78.1,72.9,30.04,East,83,0.0,5.0,84,0.00,,OVC130,0.00,VWS V14.01,2013-08-04 05:18:00,
2013-08-04 00:23:00,78.1,72.9,30.04,East,83,0.0,5.0,84,0.00,,OVC130,0.00,VWS V14.01,2013-08-04 05:23:00,
2013-08-04 00:28:00,78.1,72.9,30.04,East,83,1.0,5.0,84,0.00,,OVC130,0.00,VWS V14.01,2013-08-04 05:28:00,
2013-08-04 00:33:00,77.9,72.7,30.04,East,83,0.0,5.0,84,0.00,,OVC130,0.00,VWS V14.01,2013-08-04 05:33:00,
2013-08-04 00:38:00,77.9,72.7,30.04,East,83,0.0,5.0,84,0.00,,OVC130,0.00,VWS V14.01,2013-08-04 05:38:00,
2013-08-04 00:43:00,77.9,72.7,30.04,East,83,0.0,5.0,84,0.00,,OVC130,0.00,VWS V14.01,2013-08-04 05:43:00,
2013-08-04 00:48:00,77.9,73.0,30.03,East,83,0.0,5.0,85,0.00,,OVC130,0.00,VWS V14.01,2013-08-04 05:48:00,
2013-08-04 00:53:00,77.9,73.0,30.03,East,83,0.0,5.0,85,0.00,,OVC130,0.00,VWS V14.01,2013-08-04 05:53:00,
2013-08-04 00:59:00,77.7,72.8,30.03,East,99,0.0,5.0,85,0.00,,OVC130,0.00,VWS V14.01,2013-08-04 05:59:00,
2013-08-04 01:04:00,77.7,72.8,30.02,ESE,106,0.0,2.0,85,0.00,,OVC190,0.00,VWS V14.01,2013-08-04 06:04:00,
2013-08-04 01:09:00,77.7,72.8,30.02,ESE,104,0.0,5.0,85,0.00,,OVC190,0.00,VWS V14.01,2013-08-04 06:09:00,
2013-08-04 01:14:00,77.7,72.8,30.01,ESE,110,2.0,5.0,85,0.00,,OVC190,0.00,VWS V14.01,2013-08-04 06:14:00,
2013-08-04 01:19:00,77.6,73.1,30.01,East,89,0.0,5.0,86,0.00,,OVC190,0.00,VWS V14.01,2013-08-04 06:19:00,
2013-08-04 01:24:00,77.4,72.9,30.01,East,89,2.0,5.0,86,0.00,,OVC190,0.00,VWS V14.01,2013-08-04 06:24:00,
2013-08-04 01:29:00,77.4,72.9,30.00,ESE,106,2.0,5.0,86,0.00,,OVC190,0.00,VWS V14.01,2013-08-04 06:29:00,
2013-08-04 01:35:00,77.2,72.7,30.00,East,97,0.0,5.0,86,0.00,,OVC190,0.00,VWS V14.01,2013-08-04 06:35:00,
2013-08-04 01:39:00,77.2,73.0,30.00,ENE,78,1.0,5.0,87,0.00,,OVC190,0.00,VWS V14.01,2013-08-04 06:39:00,
2013-08-04 01:45:00,77.0,72.5,29.98,ESE,117,1.0,5.0,86,0.00,,OVC190,0.00,VWS V14.01,2013-08-04 06:45:00,
2013-08-04 01:50:00,77.0,72.8,29.98,East,96,0.0,5.0,87,0.00,,OVC190,0.00,VWS V14.01,2013-08-04 06:50:00,
2013-08-04 01:55:00,77.0,73.2,29.98,East,100,1.0,5.0,88,0.00,,OVC190,0.00,VWS V14.01,2013-08-04 06:55:00,
2013-08-04 02:00:00,76.8,73.0,29.98,ENE,71,0.0,2.0,88,0.00,,SCT190,0.00,VWS V14.01,2013-08-04 07:00:00,
2013-08-04 02:05:00,76.7,72.9,29.98,ENE,69,0.0,3.0,88,0.00,,SCT190,0.00,VWS V14.01,2013-08-04 07:05:00,
2013-08-04 02:10:00,76.7,73.2,29.98,ESE,119,0.0,3.0,89,0.00,,SCT190,0.00,VWS V14.01,2013-08-04 07:10:00,
2013-08-04 02:16:00,76.5,73.0,29.98,SE,126,0.0,3.0,89,0.00,,SCT190,0.00,VWS V14.01,2013-08-04 07:16:00,
2013-08-04 02:20:00,76.5,73.3,29.98,ENE,78,2.0,5.0,90,0.00,,SCT190,0.00,VWS V14.01,2013-08-04 07:20:00,
2013-08-04 02:26:00,76.3,73.2,29.98,East,82,0.0,5.0,90,0.00,,SCT190,0.00,VWS V14.01,2013-08-04 07:26:00,
2013-08-04 02:31:00,76.3,73.2,29.99,East,82,0.0,5.0,90,0.00,,SCT190,0.00,VWS V14.01,2013-08-04 07:31:00,
2013-08-04 02:36:00,76.1,73.0,29.99,East,82,0.0,5.0,90,0.00,,SCT190,0.00,VWS V14.01,2013-08-04 07:36:00,
2013-08-04 02:41:00,76.0,73.2,29.99,East,82,0.0,5.0,91,0.00,,SCT190,0.00,VWS V14.01,2013-08-04 07:41:00,
2013-08-04 02:46:00,76.0,73.5,30.00,East,82,0.0,5.0,92,0.00,,SCT190,0.00,VWS V14.01,2013-08-04 07:46:00,
2013-08-04 02:51:00,76.0,73.5,30.00,East,97,1.0,5.0,92,0.00,,SCT190,0.00,VWS V14.01,2013-08-04 07:51:00,
2013-08-04 02:57:00,76.3,73.8,30.00,ESE,107,1.0,5.0,92,0.00,,SCT190,0.00,VWS V14.01,2013-08-04 07:57:00,
2013-08-04 03:03:00,76.8,74.0,30.00,ESE,113,2.0,5.0,91,0.00,,BKN180,0.00,VWS V14.01,2013-08-04 08:03:00,
2013-08-04 03:08:00,77.0,73.8,30.00,ESE,102,0.0,5.0,90,0.00,,BKN180,0.00,VWS V14.01,2013-08-04 08:08:00,
2013-08-04 03:13:00,77.0,73.8,30.00,East,86,0.0,5.0,90,0.00,,BKN180,0.00,VWS V14.01,2013-08-04 08:13:00,
2013-08-04 03:18:00,77.0,73.8,30.00,East,85,0.0,5.0,90,0.00,,BKN180,0.00,VWS V14.01,2013-08-04 08:18:00,
2013-08-04 03:23:00,76.8,73.7,30.00,ENE,72,0.0,5.0,90,0.00,,BKN180,0.00,VWS V14.01,2013-08-04 08:23:00,
2013-08-04 03:28:00,76.7,73.6,30.00,ENE,73,0.0,5.0,90,0.00,,BKN180,0.00,VWS V14.01,2013-08-04 08:28:00,
2013-08-04 03:33:00,76.7,73.9,30.01,ENE,73,0.0,5.0,91,0.00,,BKN180,0.00,VWS V14.01,2013-08-04 08:33:00,
2013-08-04 03:38:00,76.5,73.7,30.01,ENE,73,2.0,5.0,91,0.00,,BKN180,0.00,VWS V14.01,2013-08-04 08:38:00,
2013-08-04 03:43:00,76.5,73.7,30.01,ENE,73,0.0,5.0,91,0.00,,BKN180,0.00,VWS V14.01,2013-08-04 08:43:00,
2013-08-04 03:48:00,76.3,73.8,30.01,ENE,73,0.0,5.0,92,0.00,,BKN180,0.00,VWS V14.01,2013-08-04 08:48:00,
2013-08-04 03:53:00,76.1,73.6,30.01,ENE,73,2.0,5.0,92,0.00,,BKN180,0.00,VWS V14.01,2013-08-04 08:53:00,
2013-08-04 03:58:00,76.1,73.6,30.01,ENE,78,0.0,5.0,92,0.00,,BKN180,0.00,VWS V14.01,2013-08-04 08:58:00,
2013-08-04 04:00:00,76.1,73.6,30.01,East,86,0.0,5.0,92,0.00,,OVC041CB,0.00,VWS V14.01,2013-08-04 09:00:00,
2013-08-04 04:03:00,76.1,73.9,30.01,East,88,0.0,5.0,93,0.00,,BKN200,0.00,VWS V14.01,2013-08-04 09:03:00,
2013-08-04 04:09:00,76.1,73.9,30.01,East,86,0.0,5.0,93,0.00,,BKN200,0.00,VWS V14.01,2013-08-04 09:09:00,
2013-08-04 04:14:00,76.1,73.9,30.01,ENE,76,2.0,5.0,93,0.00,,BKN200,0.00,VWS V14.01,2013-08-04 09:14:00,
2013-08-04 04:19:00,76.1,73.9,30.02,East,79,0.0,5.0,93,0.00,,BKN200,0.00,VWS V14.01,2013-08-04 09:19:00,
2013-08-04 04:24:00,76.1,73.9,30.02,East,79,0.0,5.0,93,0.00,,BKN200,0.00,VWS V14.01,2013-08-04 09:24:00,
2013-08-04 04:29:00,76.1,74.2,30.02,ENE,76,5.0,6.0,94,0.00,,BKN200,0.00,VWS V14.01,2013-08-04 09:29:00,
2013-08-04 04:34:00,76.1,74.2,30.02,ENE,69,0.0,6.0,94,0.00,,BKN200,0.00,VWS V14.01,2013-08-04 09:34:00,
2013-08-04 04:39:00,76.1,74.2,30.02,East,80,0.0,6.0,94,0.00,,BKN200,0.00,VWS V14.01,2013-08-04 09:39:00,
2013-08-04 04:44:00,76.0,74.2,30.02,East,80,0.0,6.0,94,0.00,,BKN200,0.00,VWS V14.01,2013-08-04 09:44:00,
2013-08-04 04:49:00,76.0,74.2,30.02,East,80,0.0,6.0,94,0.00,,BKN200,0.00,VWS V14.01,2013-08-04 09:49:00,
2013-08-04 04:54:00,76.0,74.2,30.02,East,80,0.0,6.0,94,0.00,,BKN200,0.00,VWS V14.01,2013-08-04 09:54:00,
2013-08-04 04:59:00,76.0,74.5,30.02,East,95,0.0,6.0,95,0.00,,BKN200,0.00,VWS V14.01,2013-08-04 09:59:00,
2013-08-04 05:05:00,76.1,74.6,30.02,SE,127,2.0,3.0,95,0.00,,OVC150,0.00,VWS V14.01,2013-08-04 10:05:00,
2013-08-04 05:10:00,76.3,74.8,30.02,ESE,104,0.0,3.0,95,0.00,,OVC150,0.00,VWS V14.01,2013-08-04 10:10:00,
2013-08-04 05:15:00,76.5,75.0,30.01,East,93,5.0,5.0,95,0.00,,OVC150,0.00,VWS V14.01,2013-08-04 10:15:00,
2013-08-04 05:20:00,76.5,75.0,30.01,East,88,0.0,5.0,95,0.00,,OVC150,0.00,VWS V14.01,2013-08-04 10:20:00,
2013-08-04 05:25:00,76.5,74.7,30.01,East,80,0.0,6.0,94,0.00,,OVC150,0.00,VWS V14.01,2013-08-04 10:25:00,
2013-08-04 05:30:00,76.5,75.0,30.01,ENE,75,0.0,6.0,95,0.00,,OVC150,0.00,VWS V14.01,2013-08-04 10:30:00,
2013-08-04 05:35:00,76.5,75.0,30.01,East,82,1.0,6.0,95,0.00,,OVC150,0.00,VWS V14.01,2013-08-04 10:35:00,
2013-08-04 05:40:00,76.3,74.8,30.01,East,80,2.0,6.0,95,0.00,,OVC150,0.00,VWS V14.01,2013-08-04 10:40:00,
2013-08-04 05:45:00,76.3,74.8,30.02,SSE,147,0.0,6.0,95,0.00,,OVC150,0.00,VWS V14.01,2013-08-04 10:45:00,
2013-08-04 05:50:00,76.3,74.8,30.02,ESE,106,0.0,6.0,95,0.00,,OVC150,0.00,VWS V14.01,2013-08-04 10:50:00,
2013-08-04 05:56:00,76.3,74.8,30.02,East,86,0.0,6.0,95,0.00,,OVC150,0.00,VWS V14.01,2013-08-04 10:56:00,
2013-08-04 06:01:00,76.3,75.1,30.03,East,88,0.0,0.0,96,0.00,,-RA,0.00,VWS V14.01,2013-08-04 11:01:00,
2013-08-04 06:06:00,76.3,75.1,30.03,East,88,0.0,2.0,96,0.00,,-RA,0.00,VWS V14.01,2013-08-04 11:06:00,
2013-08-04 06:11:00,76.3,75.1,30.03,ESE,116,0.0,2.0,96,0.00,,-RA,0.00,VWS V14.01,2013-08-04 11:11:00,
2013-08-04 06:16:00,76.5,75.3,30.03,East,92,2.0,3.0,96,0.00,,-RA,0.00,VWS V14.01,2013-08-04 11:16:00,
2013-08-04 06:21:00,76.3,75.1,30.03,ENE,71,5.0,5.0,96,0.00,,-RA,0.00,VWS V14.01,2013-08-04 11:21:00,
2013-08-04 06:27:00,76.3,75.1,30.03,East,92,0.0,5.0,96,0.00,,-RA,0.00,VWS V14.01,2013-08-04 11:27:00,
2013-08-04 06:31:00,76.3,75.1,30.04,ESE,113,0.0,5.0,96,0.00,,-RA,0.00,VWS V14.01,2013-08-04 11:31:00,
2013-08-04 06:37:00,76.3,74.8,30.04,SSE,148,0.0,5.0,95,0.00,,-RA,0.00,VWS V14.01,2013-08-04 11:37:00,
2013-08-04 06:42:00,76.3,75.1,30.04,SE,138,0.0,5.0,96,0.00,,-RA,0.00,VWS V14.01,2013-08-04 11:42:00,
2013-08-04 06:47:00,76.3,75.1,30.04,East,93,0.0,5.0,96,0.00,,-RA,0.00,VWS V14.01,2013-08-04 11:47:00,
2013-08-04 06:52:00,76.3,75.1,30.04,East,97,0.0,5.0,96,0.00,,-RA,0.00,VWS V14.01,2013-08-04 11:52:00,
2013-08-04 06:57:00,76.3,75.1,30.04,SE,144,0.0,5.0,96,0.00,,-RA,0.00,VWS V14.01,2013-08-04 11:57:00,
2013-08-04 07:00:00,76.3,75.1,30.04,ESE,121,0.0,5.0,96,0.00,,OVC041CB,0.00,VWS V14.01,2013-08-04 12:00:00,
2013-08-04 07:02:00,76.3,75.1,30.04,East,90,1.0,2.0,96,0.00,,OVC150,0.00,VWS V14.01,2013-08-04 12:02:00,
2013-08-04 07:08:00,76.5,75.3,30.04,ESE,113,0.0,5.0,96,0.00,,OVC150,0.00,VWS V14.01,2013-08-04 12:08:00,
2013-08-04 07:13:00,76.5,75.0,30.04,East,88,0.0,5.0,95,0.00,,OVC150,0.00,VWS V14.01,2013-08-04 12:13:00,
2013-08-04 07:18:00,76.5,74.7,30.04,ESE,112,5.0,5.0,94,0.00,,OVC150,0.00,VWS V14.01,2013-08-04 12:18:00,
2013-08-04 07:23:00,76.5,75.0,30.04,East,80,2.0,5.0,95,0.00,,OVC150,0.00,VWS V14.01,2013-08-04 12:23:00,
2013-08-04 07:28:00,76.3,75.1,30.04,East,99,0.0,5.0,96,0.00,,OVC150,0.00,VWS V14.01,2013-08-04 12:28:00,
2013-08-04 07:33:00,76.5,75.3,30.05,SSE,147,1.0,5.0,96,0.00,,OVC150,0.00,VWS V14.01,2013-08-04 12:33:00,
2013-08-04 07:38:00,76.5,75.3,30.05,East,79,1.0,5.0,96,0.00,,OVC150,0.00,VWS V14.01,2013-08-04 12:38:00,
2013-08-04 07:44:00,76.5,75.3,30.05,SE,136,0.0,5.0,96,0.00,,OVC150,0.00,VWS V14.01,2013-08-04 12:44:00,
2013-08-04 07:49:00,76.5,75.3,30.05,East,85,0.0,5.0,96,0.00,,OVC150,0.00,VWS V14.01,2013-08-04 12:49:00,
2013-08-04 07:54:00,76.5,75.3,30.05,SE,126,0.0,5.0,96,0.00,,OVC150,0.00,VWS V14.01,2013-08-04 12:54:00,
2013-08-04 07:59:00,76.7,75.5,30.05,ENE,72,1.0,10.0,96,0.00,,OVC150,0.00,VWS V14.01,2013-08-04 12:59:00,
2013-08-04 08:04:00,76.7,75.5,30.05,SSE,147,0.0,3.0,96,0.00,,OVC095,0.00,VWS V14.01,2013-08-04 13:04:00,
2013-08-04 08:09:00,76.8,75.6,30.05,East,92,0.0,3.0,96,0.00,,OVC095,0.00,VWS V14.01,2013-08-04 13:09:00,
2013-08-04 08:14:00,76.8,75.3,30.05,ESE,123,2.0,5.0,95,0.00,,OVC095,0.00,VWS V14.01,2013-08-04 13:14:00,
2013-08-04 08:19:00,76.8,75.3,30.05,SE,124,2.0,5.0,95,0.00,,OVC095,0.00,VWS V14.01,2013-08-04 13:19:00,
2013-08-04 08:24:00,77.0,75.5,30.05,East,80,2.0,6.0,95,0.00,,OVC095,0.00,VWS V14.01,2013-08-04 13:24:00,
2013-08-04 08:29:00,77.0,75.1,30.05,ESE,114,1.0,6.0,94,0.00,,OVC095,0.00,VWS V14.01,2013-08-04 13:29:00,
2013-08-04 08:34:00,77.0,75.1,30.05,ESE,114,1.0,6.0,94,0.00,,OVC095,0.00,VWS V14.01,2013-08-04 13:34:00,
2013-08-04 08:39:00,77.2,75.3,30.05,ESE,102,3.0,6.0,94,0.00,,OVC095,0.00,VWS V14.01,2013-08-04 13:39:00,
2013-08-04 08:45:00,77.2,75.0,30.05,ESE,121,0.0,7.0,93,0.00,,OVC095,0.00,VWS V14.01,2013-08-04 13:45:00,
2013-08-04 08:50:00,77.2,75.0,30.05,ESE,113,0.0,7.0,93,0.00,,OVC095,0.00,VWS V14.01,2013-08-04 13:50:00,
2013-08-04 08:55:00,77.2,75.0,30.05,ESE,120,0.0,7.0,93,0.00,,OVC095,0.00,VWS V14.01,2013-08-04 13:55:00,
2013-08-04 09:00:00,77.4,74.9,30.05,SE,144,2.0,7.0,92,0.00,,OVC095,0.00,VWS V14.01,2013-08-04 14:00:00,
2013-08-04 09:05:00,77.4,75.5,30.05,SE,133,5.0,5.0,94,0.00,,OVC100,0.00,VWS V14.01,2013-08-04 14:05:00,
2013-08-04 09:10:00,77.6,75.4,30.05,SE,137,0.0,5.0,93,0.00,,OVC100,0.00,VWS V14.01,2013-08-04 14:10:00,
2013-08-04 09:15:00,77.7,75.5,30.06,East,85,0.0,7.0,93,0.00,,OVC100,0.00,VWS V14.01,2013-08-04 14:15:00,
2013-08-04 09:20:00,77.9,75.4,30.06,ENE,68,0.0,7.0,92,0.00,,OVC100,0.00,VWS V14.01,2013-08-04 14:20:00,
2013-08-04 09:25:00,78.1,75.3,30.06,ESE,102,1.0,7.0,91,0.00,,OVC100,0.00,VWS V14.01,2013-08-04 14:25:00,
2013-08-04 09:31:00,78.3,75.1,30.06,ESE,121,3.0,7.0,90,0.00,,OVC100,0.00,VWS V14.01,2013-08-04 14:31:00,
2013-08-04 09:36:00,78.6,75.1,30.06,East,83,0.0,7.0,89,0.00,,OVC100,0.00,VWS V14.01,2013-08-04 14:36:00,
2013-08-04 09:41:00,78.6,75.1,30.06,SSE,157,2.0,7.0,89,0.00,,OVC100,0.00,VWS V14.01,2013-08-04 14:41:00,
2013-08-04 09:46:00,78.8,74.9,30.07,ENE,71,0.0,7.0,88,0.00,,OVC100,0.00,VWS V14.01,2013-08-04 14:46:00,
2013-08-04 09:51:00,79.0,75.2,30.07,ENE,71,0.0,7.0,88,0.00,,OVC100,0.00,VWS V14.01,2013-08-04 14:51:00,
2013-08-04 09:56:00,79.2,75.3,30.07,ENE,71,0.0,7.0,88,0.00,,OVC100,0.00,VWS V14.01,2013-08-04 14:56:00,
2013-08-04 10:01:00,79.0,74.5,30.08,ENE,71,0.0,1.0,86,0.00,,BKN075,0.00,VWS V14.01,2013-08-04 15:01:00,
2013-08-04 10:06:00,79.2,74.3,30.08,ENE,71,0.0,1.0,85,0.00,,BKN075,0.00,VWS V14.01,2013-08-04 15:06:00,
2013-08-04 10:11:00,79.4,74.8,30.08,ENE,71,0.0,2.0,86,0.00,,BKN075,0.00,VWS V14.01,2013-08-04 15:11:00,
2013-08-04 10:17:00,79.6,75.1,30.07,ENE,71,0.0,2.0,86,0.00,,BKN075,0.00,VWS V14.01,2013-08-04 15:17:00,
2013-08-04 10:22:00,79.6,75.1,30.07,ENE,71,0.0,3.0,86,0.00,,BKN075,0.00,VWS V14.01,2013-08-04 15:22:00,
2013-08-04 10:27:00,79.6,74.7,30.07,ENE,71,1.0,3.0,85,0.00,,BKN075,0.00,VWS V14.01,2013-08-04 15:27:00,
2013-08-04 10:33:00,79.8,75.2,30.07,ENE,71,0.0,3.0,86,0.00,,BKN075,0.00,VWS V14.01,2013-08-04 15:33:00,
2013-08-04 10:38:00,80.1,75.5,30.07,ENE,71,3.0,3.0,86,0.00,,BKN075,0.00,VWS V14.01,2013-08-04 15:38:00,
2013-08-04 10:43:00,80.5,75.9,30.07,ENE,62,2.0,5.0,86,0.00,,BKN075,0.00,VWS V14.01,2013-08-04 15:43:00,
2013-08-04 10:48:00,80.9,75.3,30.06,ENE,71,2.0,6.0,83,0.00,,BKN075,0.00,VWS V14.01,2013-08-04 15:48:00,
2013-08-04 10:53:00,80.9,75.3,30.06,ENE,71,5.0,6.0,83,0.00,,BKN075,0.00,VWS V14.01,2013-08-04 15:53:00,
2013-08-04 10:58:00,81.1,75.4,30.06,East,88,6.0,7.0,83,0.00,,BKN075,0.00,VWS V14.01,2013-08-04 15:58:00,
2013-08-04 11:03:00,81.1,75.4,30.06,East,89,3.0,7.0,83,0.00,,OVC080,0.00,VWS V14.01,2013-08-04 16:03:00,
2013-08-04 11:08:00,80.5,75.6,30.06,ENE,73,7.0,7.0,85,0.00,,OVC080,0.00,VWS V14.01,2013-08-04 16:08:00,
2013-08-04 11:14:00,80.7,75.8,30.06,ENE,71,0.0,7.0,85,0.00,,OVC080,0.00,VWS V14.01,2013-08-04 16:14:00,
2013-08-04 11:19:00,80.5,75.6,30.06,ENE,75,2.0,7.0,85,0.00,,OVC080,0.00,VWS V14.01,2013-08-04 16:19:00,
2013-08-04 11:24:00,80.5,75.6,30.06,ENE,62,2.0,7.0,85,0.00,,OVC080,0.00,VWS V14.01,2013-08-04 16:24:00,
2013-08-04 11:29:00,80.7,76.1,30.06,ENE,66,5.0,8.0,86,0.00,,OVC080,0.00,VWS V14.01,2013-08-04 16:29:00,
2013-08-04 11:34:00,80.7,75.8,30.06,NE,54,2.0,8.0,85,0.00,,OVC080,0.00,VWS V14.01,2013-08-04 16:34:00,
2013-08-04 11:39:00,80.7,75.8,30.06,ENE,68,2.0,8.0,85,0.00,,OVC080,0.00,VWS V14.01,2013-08-04 16:39:00,
2013-08-04 11:44:00,80.7,76.1,30.05,ENE,73,5.0,8.0,86,0.00,,OVC080,0.00,VWS V14.01,2013-08-04 16:44:00,
2013-08-04 11:49:00,80.5,75.6,30.05,ENE,58,0.0,8.0,85,0.00,,OVC080,0.00,VWS V14.01,2013-08-04 16:49:00,
2013-08-04 11:54:00,80.7,75.8,30.05,ENE,58,0.0,8.0,85,0.00,,OVC080,0.00,VWS V14.01,2013-08-04 16:54:00,
2013-08-04 11:59:00,80.7,75.8,30.05,ENE,73,0.0,8.0,85,0.00,,OVC080,0.00,VWS V14.01,2013-08-04 16:59:00,
2013-08-04 12:04:00,80.9,76.0,30.05,ENE,65,0.0,7.0,85,0.00,,OVC090,0.00,VWS V14.01,2013-08-04 17:04:00,
2013-08-04 12:10:00,80.9,76.3,30.05,ENE,64,2.0,7.0,86,0.00,,OVC090,0.00,VWS V14.01,2013-08-04 17:10:00,
2013-08-04 12:15:00,80.9,75.6,30.04,ENE,61,3.0,7.0,84,0.00,,OVC090,0.00,VWS V14.01,2013-08-04 17:15:00,
2013-08-04 12:20:00,80.9,76.0,30.04,East,83,5.0,10.0,85,0.00,,OVC090,0.00,VWS V14.01,2013-08-04 17:20:00,
2013-08-04 12:25:00,81.1,75.4,30.04,ENE,73,5.0,10.0,83,0.00,,OVC090,0.00,VWS V14.01,2013-08-04 17:25:00,
2013-08-04 12:30:00,81.1,75.8,30.04,ENE,62,7.0,10.0,84,0.00,,OVC090,0.00,VWS V14.01,2013-08-04 17:30:00,
2013-08-04 12:35:00,81.1,75.8,30.04,ENE,71,2.0,10.0,84,0.00,,OVC090,0.00,VWS V14.01,2013-08-04 17:35:00,
2013-08-04 12:40:00,81.4,75.7,30.04,ENE,59,3.0,10.0,83,0.00,,OVC090,0.00,VWS V14.01,2013-08-04 17:40:00,
2013-08-04 12:45:00,81.6,75.6,30.03,ENE,71,3.0,10.0,82,0.00,,OVC090,0.00,VWS V14.01,2013-08-04 17:45:00,
2013-08-04 12:50:00,82.4,75.6,30.03,NE,54,6.0,10.0,80,0.00,,OVC090,0.00,VWS V14.01,2013-08-04 17:50:00,
2013-08-04 12:55:00,82.6,76.6,30.03,ENE,73,5.0,10.0,82,0.00,,OVC090,0.00,VWS V14.01,2013-08-04 17:55:00,
2013-08-04 13:01:00,82.6,75.8,30.03,ENE,69,2.0,7.0,80,0.00,,OVC090,0.00,VWS V14.01,2013-08-04 18:01:00,
2013-08-04 13:06:00,82.4,76.0,30.03,ENE,68,3.0,10.0,81,0.00,,OVC090,0.00,VWS V14.01,2013-08-04 18:06:00,
2013-08-04 13:11:00,83.2,76.4,30.03,ENE,62,2.0,11.0,80,0.00,,OVC090,0.00,VWS V14.01,2013-08-04 18:11:00,
2013-08-04 13:16:00,83.4,76.2,30.02,ENE,76,6.0,11.0,79,0.00,,OVC090,0.00,VWS V14.01,2013-08-04 18:16:00,
2013-08-04 13:21:00,82.8,76.0,30.02,ENE,66,5.0,11.0,80,0.00,,OVC090,0.00,VWS V14.01,2013-08-04 18:21:00,
2013-08-04 13:27:00,82.4,75.6,30.02,ENE,68,3.0,11.0,80,0.00,,OVC090,0.00,VWS V14.01,2013-08-04 18:27:00,
2013-08-04 13:33:00,82.6,75.8,30.03,ENE,76,5.0,11.0,80,0.00,,OVC090,0.00,VWS V14.01,2013-08-04 18:33:00,
2013-08-04 13:38:00,82.8,76.0,30.03,NE,42,2.0,11.0,80,0.00,,OVC090,0.00,VWS V14.01,2013-08-04 18:38:00,
2013-08-04 13:43:00,82.8,76.0,30.03,ENE,72,5.0,11.0,80,0.00,,OVC090,0.00,VWS V14.01,2013-08-04 18:43:00,
2013-08-04 13:48:00,83.0,76.2,30.02,ESE,109,6.0,11.0,80,0.00,,OVC090,0.00,VWS V14.01,2013-08-04 18:48:00,
2013-08-04 13:53:00,83.4,76.6,30.02,ENE,64,8.0,11.0,80,0.00,,OVC090,0.00,VWS V14.01,2013-08-04 18:53:00,
2013-08-04 13:58:00,83.2,76.4,30.02,NE,54,2.0,11.0,80,0.00,,OVC090,0.00,VWS V14.01,2013-08-04 18:58:00,
2013-08-04 14:04:00,83.4,76.6,30.02,ENE,78,3.0,6.0,80,0.00,,OVC100,0.00,VWS V14.01,2013-08-04 19:04:00,
2013-08-04 14:09:00,83.6,76.4,30.02,ENE,71,5.0,7.0,79,0.00,,OVC100,0.00,VWS V14.01,2013-08-04 19:09:00,
2013-08-04 14:14:00,83.4,76.2,30.02,ENE,73,5.0,8.0,79,0.00,,OVC100,0.00,VWS V14.01,2013-08-04 19:14:00,
2013-08-04 14:19:00,83.4,76.2,30.02,NE,55,1.0,8.0,79,0.00,,OVC100,0.00,VWS V14.01,2013-08-04 19:19:00,
2013-08-04 14:24:00,83.6,76.8,30.02,NE,42,0.0,8.0,80,0.00,,OVC100,0.00,VWS V14.01,2013-08-04 19:24:00,
2013-08-04 14:29:00,83.6,76.8,30.02,ENE,66,5.0,8.0,80,0.00,,OVC100,0.00,VWS V14.01,2013-08-04 19:29:00,
2013-08-04 14:34:00,84.0,76.8,30.02,ENE,62,2.0,8.0,79,0.00,,OVC100,0.00,VWS V14.01,2013-08-04 19:34:00,
2013-08-04 14:39:00,84.1,76.9,30.02,NE,45,5.0,10.0,79,0.00,,OVC100,0.00,VWS V14.01,2013-08-04 19:39:00,
2013-08-04 14:44:00,84.3,76.7,30.01,NE,38,2.0,10.0,78,0.00,,OVC100,0.00,VWS V14.01,2013-08-04 19:44:00,
2013-08-04 14:50:00,84.5,77.3,30.01,NE,52,2.0,12.0,79,0.00,,OVC100,0.00,VWS V14.01,2013-08-04 19:50:00,
2013-08-04 14:55:00,84.7,77.5,30.01,ENE,68,2.0,12.0,79,0.00,,OVC100,0.00,VWS V14.01,2013-08-04 19:55:00,
2013-08-04 15:00:00,85.3,77.7,30.00,ENE,75,3.0,12.0,78,0.00,,OVC100,0.00,VWS V14.01,2013-08-04 20:00:00,
2013-08-04 15:05:00,84.9,77.7,30.00,ENE,78,5.0,10.0,79,0.00,,BKN100,0.00,VWS V14.01,2013-08-04 20:05:00,
2013-08-04 15:10:00,84.5,76.9,30.00,ENE,59,5.0,10.0,78,0.00,,BKN100,0.00,VWS V14.01,2013-08-04 20:10:00,
2013-08-04 15:15:00,84.5,76.9,30.00,ENE,65,3.0,10.0,78,0.00,,BKN100,0.00,VWS V14.01,2013-08-04 20:15:00,
2013-08-04 15:20:00,84.5,76.9,30.00,ENE,69,6.0,10.0,78,0.00,,BKN100,0.00,VWS V14.01,2013-08-04 20:20:00,
2013-08-04 15:26:00,84.3,76.7,30.00,NE,56,0.0,10.0,78,0.00,,BKN100,0.00,VWS V14.01,2013-08-04 20:26:00,
2013-08-04 15:30:00,84.3,76.7,29.99,East,79,2.0,10.0,78,0.00,,BKN100,0.00,VWS V14.01,2013-08-04 20:30:00,
2013-08-04 15:36:00,84.3,77.5,29.99,NE,52,3.0,10.0,80,0.00,,BKN100,0.00,VWS V14.01,2013-08-04 20:36:00,
2013-08-04 15:41:00,84.3,77.5,29.99,ENE,58,7.0,12.0,80,0.00,,BKN100,0.00,VWS V14.01,2013-08-04 20:41:00,
2013-08-04 15:46:00,84.5,76.9,29.99,ENE,78,7.0,12.0,78,0.00,,BKN100,0.00,VWS V14.01,2013-08-04 20:46:00,
2013-08-04 15:51:00,84.7,77.1,29.99,ENE,62,5.0,12.0,78,0.00,,BKN100,0.00,VWS V14.01,2013-08-04 20:51:00,
2013-08-04 15:56:00,84.5,76.5,29.99,ENE,62,3.0,12.0,77,0.00,,BKN100,0.00,VWS V14.01,2013-08-04 20:56:00,
2013-08-04 16:01:00,84.5,76.5,29.98,NE,47,5.0,6.0,77,0.00,,OVC170,0.00,VWS V14.01,2013-08-04 21:01:00,
2013-08-04 16:07:00,84.3,76.3,29.98,East,89,7.0,8.0,77,0.00,,OVC170,0.00,VWS V14.01,2013-08-04 21:07:00,
2013-08-04 16:11:00,84.5,77.3,29.98,ENE,75,5.0,10.0,79,0.00,,OVC170,0.00,VWS V14.01,2013-08-04 21:11:00,
2013-08-04 16:17:00,84.9,77.7,29.98,East,85,5.0,10.0,79,0.00,,OVC170,0.00,VWS V14.01,2013-08-04 21:17:00,
2013-08-04 16:22:00,84.9,77.3,29.98,ENE,75,0.0,10.0,78,0.00,,OVC170,0.00,VWS V14.01,2013-08-04 21:22:00,
2013-08-04 16:27:00,84.9,77.7,29.98,East,86,3.0,10.0,79,0.00,,OVC170,0.00,VWS V14.01,2013-08-04 21:27:00,
2013-08-04 16:32:00,84.7,77.1,29.97,ENE,64,2.0,10.0,78,0.00,,OVC170,0.00,VWS V14.01,2013-08-04 21:32:00,
2013-08-04 16:37:00,84.9,77.7,29.97,East,79,5.0,10.0,79,0.00,,OVC170,0.00,VWS V14.01,2013-08-04 21:37:00,
2013-08-04 16:42:00,85.1,77.9,29.97,NE,51,5.0,10.0,79,0.00,,OVC170,0.00,VWS V14.01,2013-08-04 21:42:00,
2013-08-04 16:48:00,85.3,77.7,29.97,NE,34,2.0,10.0,78,0.00,,OVC170,0.00,VWS V14.01,2013-08-04 21:48:00,
2013-08-04 16:52:00,85.1,77.1,29.97,East,88,2.0,10.0,77,0.00,,OVC170,0.00,VWS V14.01,2013-08-04 21:52:00,
2013-08-04 16:57:00,85.3,77.7,29.97,NE,52,2.0,10.0,78,0.00,,OVC170,0.00,VWS V14.01,2013-08-04 21:57:00,
2013-08-04 17:02:00,85.3,77.3,29.96,East,82,5.0,7.0,77,0.00,,OVC170,0.00,VWS V14.01,2013-08-04 22:02:00,
2013-08-04 17:07:00,85.3,77.7,29.96,East,90,7.0,8.0,78,0.00,,OVC170,0.00,VWS V14.01,2013-08-04 22:07:00,
2013-08-04 17:12:00,85.3,77.7,29.96,ENE,72,7.0,10.0,78,0.00,,OVC170,0.00,VWS V14.01,2013-08-04 22:12:00,
2013-08-04 17:17:00,85.1,77.1,29.95,ESE,110,6.0,10.0,77,0.00,,OVC170,0.00,VWS V14.01,2013-08-04 22:17:00,
2013-08-04 17:22:00,85.3,77.7,29.95,ENE,61,6.0,10.0,78,0.00,,OVC170,0.00,VWS V14.01,2013-08-04 22:22:00,
2013-08-04 17:27:00,85.3,77.3,29.95,ENE,71,2.0,10.0,77,0.00,,OVC170,0.00,VWS V14.01,2013-08-04 22:27:00,
2013-08-04 17:32:00,85.3,77.7,29.95,ENE,71,2.0,10.0,78,0.00,,OVC170,0.00,VWS V14.01,2013-08-04 22:32:00,
2013-08-04 17:37:00,85.3,78.1,29.95,ENE,61,3.0,10.0,79,0.00,,OVC170,0.00,VWS V14.01,2013-08-04 22:37:00,
2013-08-04 17:42:00,85.1,77.5,29.95,East,88,3.0,10.0,78,0.00,,OVC170,0.00,VWS V14.01,2013-08-04 22:42:00,
2013-08-04 17:48:00,85.1,77.5,29.95,ENE,78,0.0,10.0,78,0.00,,OVC170,0.00,VWS V14.01,2013-08-04 22:48:00,
2013-08-04 17:53:00,85.1,77.5,29.95,ENE,76,8.0,10.0,78,0.00,,OVC170,0.00,VWS V14.01,2013-08-04 22:53:00,
2013-08-04 17:58:00,85.1,78.2,29.95,ENE,78,5.0,10.0,80,0.00,,OVC170,0.00,VWS V14.01,2013-08-04 22:58:00,
2013-08-04 18:03:00,85.1,77.5,29.93,East,99,2.0,8.0,78,0.00,,OVC160,0.00,VWS V14.01,2013-08-04 23:03:00,
2013-08-04 18:08:00,85.1,77.9,29.93,East,80,3.0,10.0,79,0.00,,OVC160,0.00,VWS V14.01,2013-08-04 23:08:00,
2013-08-04 18:13:00,85.1,78.2,29.93,ENE,62,6.0,10.0,80,0.00,,OVC160,0.00,VWS V14.01,2013-08-04 23:13:00,
2013-08-04 18:18:00,85.1,78.2,29.94,ENE,73,7.0,10.0,80,0.00,,OVC160,0.00,VWS V14.01,2013-08-04 23:18:00,
2013-08-04 18:23:00,84.9,77.3,29.94,East,86,0.0,12.0,78,0.00,,OVC160,0.00,VWS V14.01,2013-08-04 23:23:00,
2013-08-04 18:28:00,84.9,77.3,29.94,East,100,7.0,12.0,78,0.00,,OVC160,0.00,VWS V14.01,2013-08-04 23:28:00,
2013-08-04 18:34:00,84.9,77.3,29.93,ENE,66,5.0,12.0,78,0.00,,OVC160,0.00,VWS V14.01,2013-08-04 23:34:00,
2013-08-04 18:39:00,84.9,76.9,29.93,ENE,75,1.0,12.0,77,0.00,,OVC160,0.00,VWS V14.01,2013-08-04 23:39:00,
2013-08-04 18:44:00,84.9,76.9,29.93,East,79,2.0,12.0,77,0.00,,OVC160,0.00,VWS V14.01,2013-08-04 23:44:00,
2013-08-04 18:49:00,84.9,77.3,29.93,ENE,73,5.0,12.0,78,0.00,,OVC160,0.00,VWS V14.01,2013-08-04 23:49:00,
2013-08-04 18:54:00,84.9,76.9,29.93,East,86,7.0,12.0,77,0.00,,OVC160,0.00,VWS V14.01,2013-08-04 23:54:00,
2013-08-04 18:59:00,84.9,76.5,29.93,ESE,116,5.0,12.0,76,0.00,,OVC160,0.00,VWS V14.01,2013-08-04 23:59:00,
2013-08-04 19:04:00,84.9,76.9,29.93,SE,127,2.0,11.0,77,0.00,,BKN200,0.00,VWS V14.01,2013-08-05 00:04:00,
2013-08-04 19:09:00,85.1,77.5,29.93,NE,41,5.0,11.0,78,0.00,,BKN200,0.00,VWS V14.01,2013-08-05 00:09:00,
2013-08-04 19:14:00,85.1,77.1,29.93,ESE,119,7.0,11.0,77,0.00,,BKN200,0.00,VWS V14.01,2013-08-05 00:14:00,
2013-08-04 19:20:00,85.1,77.1,29.93,ENE,78,6.0,11.0,77,0.00,,BKN200,0.00,VWS V14.01,2013-08-05 00:20:00,
2013-08-04 19:24:00,84.9,76.5,29.93,East,80,10.0,12.0,76,0.00,,BKN200,0.00,VWS V14.01,2013-08-05 00:24:00,
2013-08-04 19:30:00,84.7,77.1,29.93,East,89,3.0,12.0,78,0.00,,BKN200,0.00,VWS V14.01,2013-08-05 00:30:00,
2013-08-04 19:35:00,84.5,76.9,29.93,SE,138,5.0,12.0,78,0.00,,BKN200,0.00,VWS V14.01,2013-08-05 00:35:00,
2013-08-04 19:40:00,84.3,76.7,29.93,ESE,117,5.0,12.0,78,0.00,,BKN200,0.00,VWS V14.01,2013-08-05 00:40:00,
2013-08-04 19:45:00,84.3,77.1,29.93,ESE,103,2.0,12.0,79,0.00,,BKN200,0.00,VWS V14.01,2013-08-05 00:45:00,
2013-08-04 19:50:00,84.1,76.9,29.93,SSE,155,5.0,12.0,79,0.00,,BKN200,0.00,VWS V14.01,2013-08-05 00:50:00,
2013-08-04 19:55:00,84.1,77.3,29.93,East,93,2.0,12.0,80,0.00,,BKN200,0.00,VWS V14.01,2013-08-05 00:55:00,
2013-08-04 20:00:00,84.0,77.2,29.93,East,82,5.0,6.0,80,0.00,,BKN250,0.00,VWS V14.01,2013-08-05 01:00:00,
2013-08-04 20:05:00,83.8,77.0,29.93,NE,55,5.0,10.0,80,0.00,,BKN250,0.00,VWS V14.01,2013-08-05 01:05:00,
2013-08-04 20:11:00,83.6,77.5,29.93,East,100,1.0,10.0,82,0.00,,BKN250,0.00,VWS V14.01,2013-08-05 01:11:00,
2013-08-04 20:16:00,83.6,77.5,29.93,East,89,2.0,10.0,82,0.00,,BKN250,0.00,VWS V14.01,2013-08-05 01:16:00,
2013-08-04 20:21:00,83.2,77.5,29.93,ESE,116,3.0,10.0,83,0.00,,BKN250,0.00,VWS V14.01,2013-08-05 01:21:00,
2013-08-04 20:26:00,83.2,76.4,29.93,SE,126,7.0,10.0,80,0.00,,BKN250,0.00,VWS V14.01,2013-08-05 01:26:00,
2013-08-04 20:31:00,83.0,73.9,29.94,East,95,3.0,10.0,74,0.00,,BKN250,0.00,VWS V14.01,2013-08-05 01:31:00,
2013-08-04 20:37:00,83.0,70.9,29.94,East,79,3.0,14.0,67,0.00,,BKN250,0.00,VWS V14.01,2013-08-05 01:37:00,
2013-08-04 20:42:00,82.8,71.2,29.94,ESE,120,1.0,14.0,68,0.00,,BKN250,0.00,VWS V14.01,2013-08-05 01:42:00,
2013-08-04 20:47:00,82.2,71.4,29.94,ENE,73,3.0,14.0,70,0.00,,BKN250,0.00,VWS V14.01,2013-08-05 01:47:00,
2013-08-04 20:52:00,81.8,71.5,29.94,East,99,7.0,14.0,71,0.00,,BKN250,0.00,VWS V14.01,2013-08-05 01:52:00,
2013-08-04 20:57:00,81.6,70.9,29.94,East,93,1.0,14.0,70,0.00,,BKN250,0.00,VWS V14.01,2013-08-05 01:57:00,
2013-08-04 21:00:00,81.4,71.5,29.94,ENE,73,2.0,14.0,72,0.00,,OVC041CB,0.00,VWS V14.01,2013-08-05 02:00:00,
2013-08-04 21:03:00,81.2,70.9,29.94,East,80,5.0,8.0,71,0.00,,BKN250,0.00,VWS V14.01,2013-08-05 02:03:00,
2013-08-04 21:07:00,80.9,70.6,29.94,East,85,3.0,10.0,71,0.00,,BKN250,0.00,VWS V14.01,2013-08-05 02:07:00,
2013-08-04 21:13:00,80.7,70.4,29.94,SE,128,2.0,10.0,71,0.00,,BKN250,0.00,VWS V14.01,2013-08-05 02:13:00,
2013-08-04 21:18:00,80.5,70.7,29.94,East,95,3.0,10.0,72,0.00,,BKN250,0.00,VWS V14.01,2013-08-05 02:18:00,
2013-08-04 21:23:00,80.1,69.9,29.94,East,88,2.0,10.0,71,0.00,,BKN250,0.00,VWS V14.01,2013-08-05 02:23:00,
2013-08-04 21:28:00,79.9,70.1,29.94,East,86,2.0,10.0,72,0.00,,BKN250,0.00,VWS V14.01,2013-08-05 02:28:00,
2013-08-04 21:33:00,79.6,70.2,29.95,East,85,5.0,10.0,73,0.00,,BKN250,0.00,VWS V14.01,2013-08-05 02:33:00,
2013-08-04 21:39:00,79.4,70.4,29.95,NE,48,6.0,10.0,74,0.00,,BKN250,0.00,VWS V14.01,2013-08-05 02:39:00,
2013-08-04 21:44:00,79.2,70.2,29.95,SE,126,6.0,10.0,74,0.00,,BKN250,0.00,VWS V14.01,2013-08-05 02:44:00,
2013-08-04 21:49:00,79.2,70.2,29.95,East,89,0.0,10.0,74,0.00,,BKN250,0.00,VWS V14.01,2013-08-05 02:49:00,
2013-08-04 21:54:00,79.2,70.2,29.95,East,90,1.0,10.0,74,0.00,,BKN250,0.00,VWS V14.01,2013-08-05 02:54:00,
2013-08-04 21:59:00,79.0,70.4,29.97,ENE,58,5.0,10.0,75,0.00,,BKN250,0.00,VWS V14.01,2013-08-05 02:59:00,
2013-08-04 22:04:00,79.0,70.4,29.97,East,99,0.0,7.0,75,0.00,,OVC250,0.00,VWS V14.01,2013-08-05 03:04:00,
2013-08-04 22:09:00,78.8,70.6,29.97,ENE,71,2.0,10.0,76,0.00,,OVC250,0.00,VWS V14.01,2013-08-05 03:09:00,
2013-08-04 22:14:00,78.8,70.6,29.97,East,96,2.0,10.0,76,0.00,,OVC250,0.00,VWS V14.01,2013-08-05 03:14:00,
2013-08-04 22:20:00,78.6,70.4,29.97,SSE,160,0.0,10.0,76,0.00,,OVC250,0.00,VWS V14.01,2013-08-05 03:20:00,
2013-08-04 22:25:00,78.6,70.0,29.97,East,88,1.0,10.0,75,0.00,,OVC250,0.00,VWS V14.01,2013-08-05 03:25:00,
2013-08-04 22:30:00,78.5,70.7,29.97,East,80,7.0,10.0,77,0.00,,OVC250,0.00,VWS V14.01,2013-08-05 03:30:00,
2013-08-04 22:35:00,78.5,70.7,29.97,East,99,5.0,10.0,77,0.00,,OVC250,0.00,VWS V14.01,2013-08-05 03:35:00,
2013-08-04 22:40:00,78.3,70.9,29.97,East,99,5.0,10.0,78,0.00,,OVC250,0.00,VWS V14.01,2013-08-05 03:40:00,
2013-08-04 22:45:00,78.3,70.9,29.96,ENE,64,0.0,10.0,78,0.00,,OVC250,0.00,VWS V14.01,2013-08-05 03:45:00,
2013-08-04 22:50:00,78.1,71.4,29.96,ESE,102,2.0,10.0,80,0.00,,OVC250,0.00,VWS V14.01,2013-08-05 03:50:00,
2013-08-04 22:55:00,78.1,71.4,29.96,ESE,116,6.0,10.0,80,0.00,,OVC250,0.00,VWS V14.01,2013-08-05 03:55:00,
2013-08-04 23:00:00,77.9,71.2,29.96,ESE,103,2.0,3.0,80,0.00,,SCT250,0.00,VWS V14.01,2013-08-05 04:00:00,
2013-08-04 23:01:00,77.9,71.2,29.96,East,80,5.0,5.0,80,0.00,,SCT250,0.00,VWS V14.01,2013-08-05 04:01:00,
2013-08-04 23:02:00,77.9,71.2,29.96,SE,126,2.0,7.0,80,0.00,,SCT250,0.00,VWS V14.01,2013-08-05 04:02:00,
2013-08-04 23:03:00,77.9,71.6,29.96,ESE,102,2.0,7.0,81,0.00,,SCT250,0.00,VWS V14.01,2013-08-05 04:03:00,
2013-08-04 23:05:00,77.9,71.2,29.96,ESE,116,2.0,7.0,80,0.00,,SCT250,0.00,VWS V14.01,2013-08-05 04:05:00,
2013-08-04 23:10:00,77.7,71.0,29.96,East,82,1.0,7.0,80,0.00,,SCT250,0.00,VWS V14.01,2013-08-05 04:10:00,
2013-08-04 23:15:00,77.7,71.4,29.96,East,100,1.0,7.0,81,0.00,,SCT250,0.00,VWS V14.01,2013-08-05 04:15:00,
2013-08-04 23:20:00,77.6,71.7,29.96,East,92,1.0,7.0,82,0.00,,SCT250,0.00,VWS V14.01,2013-08-05 04:20:00,
2013-08-04 23:26:00,77.6,71.7,29.96,ENE,78,0.0,7.0,82,0.00,,SCT250,0.00,VWS V14.01,2013-08-05 04:26:00,
2013-08-04 23:31:00,77.4,72.2,29.96,East,86,0.0,7.0,84,0.00,,SCT250,0.00,VWS V14.01,2013-08-05 04:31:00,
2013-08-04 23:36:00,77.4,71.5,29.96,ESE,107,5.0,7.0,82,0.00,,SCT250,0.00,VWS V14.01,2013-08-05 04:36:00,
2013-08-04 23:41:00,77.4,71.8,29.96,ESE,103,2.0,7.0,83,0.00,,SCT250,0.00,VWS V14.01,2013-08-05 04:41:00,
2013-08-04 23:46:00,77.2,72.0,29.96,SE,124,2.0,7.0,84,0.00,,SCT250,0.00,VWS V14.01,2013-08-05 04:46:00,
2013-08-04 23:52:00,77.2,71.6,29.96,ESE,114,5.0,10.0,83,0.00,,SCT250,0.00,VWS V14.01,2013-08-05 04:52:00,
2013-08-04 23:57:00,77.2,72.0,29.96,SE,124,0.0,10.0,84,0.00,,SCT250,0.00,VWS V14.01,2013-08-05 04:57:00,